Time,TemperatureF,DewpointF,PressureIn,WindDirection,WindDirectionDegrees,WindSpeedMPH,WindSpeedGustMPH,Humidity,HourlyPrecipIn,Conditions,Clouds,dailyrainin,SoftwareType,DateUTC
2013-10-19 00:02:00,36.2,30.7,29.89,SSE,157,0.0,0.0,80,0.00,,,0.00,WUHU21636XXSP,2013-10-19 05:02:00,
2013-10-19 00:07:00,35.8,30.3,29.89,SSE,157,0.0,0.0,80,0.00,,,0.00,WUHU21636XXSP,2013-10-19 05:07:00,
2013-10-19 00:12:00,35.8,30.3,29.89,SSE,157,0.0,0.0,80,0.00,,,0.00,WUHU21636XXSP,2013-10-19 05:12:00,
2013-10-19 00:17:00,35.6,30.0,29.89,SSE,157,0.0,0.0,80,0.00,,,0.00,WUHU21636XXSP,2013-10-19 05:17:00,
2013-10-19 00:22:00,35.6,30.0,29.89,SSE,157,0.0,0.0,80,0.00,,,0.00,WUHU21636XXSP,2013-10-19 05:22:00,
2013-10-19 00:27:00,35.3,29.7,29.88,SSE,157,0.0,0.0,80,0.00,,,0.00,WUHU21636XXSP,2013-10-19 05:27:00,
2013-10-19 00:32:00,35.3,29.7,29.88,SSE,157,0.0,0.0,80,0.00,,,0.00,WUHU21636XXSP,2013-10-19 05:32:00,
2013-10-19 00:37:00,35.1,29.5,29.88,SSE,157,0.0,0.0,80,0.00,,,0.00,WUHU21636XXSP,2013-10-19 05:37:00,
2013-10-19 00:42:00,34.9,29.3,29.88,SSE,157,0.0,0.0,80,0.00,,,0.00,WUHU21636XXSP,2013-10-19 05:42:00,
2013-10-19 00:47:00,34.9,29.3,29.87,SSE,157,0.0,0.0,80,0.00,,,0.00,WUHU21636XXSP,2013-10-19 05:47:00,
2013-10-19 00:52:00,34.7,29.1,29.87,SSE,157,0.0,0.0,80,0.00,,,0.00,WUHU21636XXSP,2013-10-19 05:52:00,
2013-10-19 00:57:00,34.7,29.1,29.87,SSE,157,0.0,0.0,80,0.00,,,0.00,WUHU21636XXSP,2013-10-19 05:57:00,
2013-10-19 01:02:00,34.7,29.1,29.87,SSE,157,0.0,0.0,80,0.00,,,0.00,WUHU21636XXSP,2013-10-19 06:02:00,
2013-10-19 01:07:00,34.7,29.4,29.87,SSE,157,0.0,0.0,81,0.00,,,0.00,WUHU21636XXSP,2013-10-19 06:07:00,
2013-10-19 01:12:00,34.3,29.1,29.87,SSE,157,0.0,0.0,81,0.00,,,0.00,WUHU21636XXSP,2013-10-19 06:12:00,
2013-10-19 01:17:00,34.3,29.1,29.87,SSE,157,0.0,0.0,81,0.00,,,0.00,WUHU21636XXSP,2013-10-19 06:17:00,
2013-10-19 01:22:00,34.1,28.9,29.87,SSE,157,0.0,0.0,81,0.00,,,0.00,WUHU21636XXSP,2013-10-19 06:22:00,
2013-10-19 01:27:00,33.9,28.7,29.86,SSE,157,0.0,0.0,81,0.00,,,0.00,WUHU21636XXSP,2013-10-19 06:27:00,
2013-10-19 01:32:00,33.9,28.7,29.86,SSE,157,0.0,0.0,81,0.00,,,0.00,WUHU21636XXSP,2013-10-19 06:32:00,
2013-10-19 01:37:00,33.9,28.7,29.86,SSE,157,0.0,0.0,81,0.00,,,0.00,WUHU21636XXSP,2013-10-19 06:37:00,
2013-10-19 01:42:00,33.7,28.5,29.86,SSE,157,0.0,0.0,81,0.00,,,0.00,WUHU21636XXSP,2013-10-19 06:42:00,
2013-10-19 01:47:00,33.7,28.5,29.86,SSE,157,0.0,0.0,81,0.00,,,0.00,WUHU21636XXSP,2013-10-19 06:47:00,
2013-10-19 01:52:00,33.7,28.5,29.86,SSE,157,0.0,0.0,81,0.00,,,0.00,WUHU21636XXSP,2013-10-19 06:52:00,
2013-10-19 01:57:00,33.7,28.5,29.86,SSE,157,0.0,0.0,81,0.00,,,0.00,WUHU21636XXSP,2013-10-19 06:57:00,
2013-10-19 02:02:00,33.7,28.5,29.86,SSE,157,0.0,0.0,81,0.00,,,0.00,WUHU21636XXSP,2013-10-19 07:02:00,
2013-10-19 02:07:00,33.7,28.5,29.85,SSE,157,0.0,0.0,81,0.00,,,0.00,WUHU21636XXSP,2013-10-19 07:07:00,
2013-10-19 02:12:00,33.7,28.5,29.85,SSE,157,0.0,0.0,81,0.00,,,0.00,WUHU21636XXSP,2013-10-19 07:12:00,
2013-10-19 02:17:00,33.7,28.5,29.85,SSE,157,0.0,0.0,81,0.00,,,0.00,WUHU21636XXSP,2013-10-19 07:17:00,
2013-10-19 02:22:00,33.7,28.8,29.85,SSE,157,0.0,0.0,82,0.00,,,0.00,WUHU21636XXSP,2013-10-19 07:22:00,
2013-10-19 02:27:00,33.6,28.7,29.85,SSE,157,0.0,0.0,82,0.00,,,0.00,WUHU21636XXSP,2013-10-19 07:27:00,
2013-10-19 02:32:00,33.6,28.7,29.84,SSE,157,0.0,0.0,82,0.00,,,0.00,WUHU21636XXSP,2013-10-19 07:32:00,
2013-10-19 02:37:00,33.6,28.7,29.84,SSE,157,0.0,0.0,82,0.00,,,0.00,WUHU21636XXSP,2013-10-19 07:37:00,
2013-10-19 02:42:00,33.6,28.7,29.84,SSE,157,0.0,0.0,82,0.00,,,0.00,WUHU21636XXSP,2013-10-19 07:42:00,
2013-10-19 02:47:00,33.6,28.7,29.84,SSE,157,0.0,0.0,82,0.00,,,0.00,WUHU21636XXSP,2013-10-19 07:47:00,
2013-10-19 02:52:00,33.6,28.7,29.84,SSE,157,0.0,0.0,82,0.00,,,0.00,WUHU21636XXSP,2013-10-19 07:52:00,
2013-10-19 02:57:00,33.6,28.7,29.84,SSE,157,0.0,0.0,82,0.00,,,0.00,WUHU21636XXSP,2013-10-19 07:57:00,
2013-10-19 03:02:00,33.6,28.7,29.83,SSE,157,0.0,0.0,82,0.00,,,0.00,WUHU21636XXSP,2013-10-19 08:02:00,
2013-10-19 03:07:00,33.6,28.7,29.83,SSE,157,0.0,0.0,82,0.00,,,0.00,WUHU21636XXSP,2013-10-19 08:07:00,
2013-10-19 03:12:00,33.4,28.5,29.83,SSE,157,0.0,0.0,82,0.00,,,0.00,WUHU21636XXSP,2013-10-19 08:12:00,
2013-10-19 03:17:00,33.4,28.5,29.83,SSE,157,0.0,0.0,82,0.00,,,0.00,WUHU21636XXSP,2013-10-19 08:17:00,
2013-10-19 03:22:00,33.2,28.3,29.83,SSE,157,0.0,0.0,82,0.00,,,0.00,WUHU21636XXSP,2013-10-19 08:22:00,
2013-10-19 03:27:00,33.2,28.3,29.82,SSE,157,0.0,0.0,82,0.00,,,0.00,WUHU21636XXSP,2013-10-19 08:27:00,
2013-10-19 03:32:00,33.0,28.1,29.82,SSE,157,0.0,0.0,82,0.00,,,0.00,WUHU21636XXSP,2013-10-19 08:32:00,
2013-10-19 03:37:00,33.0,28.1,29.82,SSE,157,0.0,0.0,82,0.00,,,0.00,WUHU21636XXSP,2013-10-19 08:37:00,
2013-10-19 03:42:00,33.0,28.1,29.81,SSE,157,0.0,0.0,82,0.00,,,0.00,WUHU21636XXSP,2013-10-19 08:42:00,
2013-10-19 03:47:00,33.0,28.1,29.81,SSE,157,0.0,0.0,82,0.00,,,0.00,WUHU21636XXSP,2013-10-19 08:47:00,
2013-10-19 03:52:00,33.0,28.1,29.81,SSE,157,0.0,0.0,82,0.00,,,0.00,WUHU21636XXSP,2013-10-19 08:52:00,
2013-10-19 03:57:00,32.7,27.8,29.81,SSE,157,0.0,0.0,82,0.00,,,0.00,WUHU21636XXSP,2013-10-19 08:57:00,
2013-10-19 04:02:00,32.4,27.6,29.81,SSE,157,0.0,0.0,82,0.00,,,0.00,WUHU21636XXSP,2013-10-19 09:02:00,
2013-10-19 04:07:00,32.4,27.6,29.81,SSE,157,0.0,0.0,82,0.00,,,0.00,WUHU21636XXSP,2013-10-19 09:07:00,
2013-10-19 04:12:00,32.4,27.6,29.81,SSE,157,0.0,0.0,82,0.00,,,0.00,WUHU21636XXSP,2013-10-19 09:12:00,
2013-10-19 04:17:00,32.2,27.4,29.81,SSE,157,0.0,0.0,82,0.00,,,0.00,WUHU21636XXSP,2013-10-19 09:17:00,
2013-10-19 04:22:00,32.0,27.1,29.80,SSE,157,0.0,0.0,82,0.00,,,0.00,WUHU21636XXSP,2013-10-19 09:22:00,
2013-10-19 04:27:00,32.0,27.1,29.80,SSE,157,0.0,0.0,82,0.00,,,0.00,WUHU21636XXSP,2013-10-19 09:27:00,
2013-10-19 04:32:00,32.0,27.1,29.80,SSE,157,0.0,0.0,82,0.00,,,0.00,WUHU21636XXSP,2013-10-19 09:32:00,
2013-10-19 04:37:00,32.0,27.1,29.80,SSE,157,0.0,0.0,82,0.00,,,0.00,WUHU21636XXSP,2013-10-19 09:37:00,
2013-10-19 04:42:00,32.0,27.1,29.80,SSE,157,0.0,0.0,82,0.00,,,0.00,WUHU21636XXSP,2013-10-19 09:42:00,
2013-10-19 04:47:00,32.0,27.1,29.80,SSE,157,0.0,0.0,82,0.00,,,0.00,WUHU21636XXSP,2013-10-19 09:47:00,
2013-10-19 04:52:00,31.8,26.9,29.80,SSE,157,0.0,0.0,82,0.00,,,0.00,WUHU21636XXSP,2013-10-19 09:52:00,
2013-10-19 04:57:00,31.8,26.9,29.80,SSE,157,0.0,0.0,82,0.00,,,0.00,WUHU21636XXSP,2013-10-19 09:57:00,
2013-10-19 05:02:00,31.7,26.8,29.80,SSE,157,0.0,0.0,82,0.00,,,0.00,WUHU21636XXSP,2013-10-19 10:02:00,
2013-10-19 05:07:00,31.5,26.6,29.80,SSE,157,0.0,0.0,82,0.00,,,0.00,WUHU21636XXSP,2013-10-19 10:07:00,
2013-10-19 05:12:00,31.5,26.6,29.80,SSE,157,0.0,0.0,82,0.00,,,0.00,WUHU21636XXSP,2013-10-19 10:12:00,
2013-10-19 05:17:00,31.5,26.6,29.80,SSE,157,0.0,0.0,82,0.00,,,0.00,WUHU21636XXSP,2013-10-19 10:17:00,
2013-10-19 05:22:00,31.8,26.9,29.79,SSE,157,0.0,0.0,82,0.00,,,0.00,WUHU21636XXSP,2013-10-19 10:22:00,
2013-10-19 05:27:00,31.8,26.9,29.80,SSE,157,0.0,0.0,82,0.00,,,0.00,WUHU21636XXSP,2013-10-19 10:27:00,
2013-10-19 05:32:00,31.8,27.2,29.79,SSE,157,0.0,0.0,83,0.00,,,0.00,WUHU21636XXSP,2013-10-19 10:32:00,
2013-10-19 05:37:00,32.0,27.4,29.79,SSE,157,0.0,0.0,83,0.00,,,0.00,WUHU21636XXSP,2013-10-19 10:37:00,
2013-10-19 05:42:00,32.0,27.4,29.79,SSE,157,0.0,0.0,83,0.00,,,0.00,WUHU21636XXSP,2013-10-19 10:42:00,
2013-10-19 05:47:00,32.0,27.4,29.79,SSE,157,0.0,0.0,83,0.00,,,0.00,WUHU21636XXSP,2013-10-19 10:47:00,
2013-10-19 05:52:00,32.2,27.6,29.79,SSE,157,0.0,0.0,83,0.00,,,0.00,WUHU21636XXSP,2013-10-19 10:52:00,
2013-10-19 05:57:00,32.4,27.8,29.79,SSE,157,0.0,0.0,83,0.00,,,0.00,WUHU21636XXSP,2013-10-19 10:57:00,
2013-10-19 06:02:00,32.7,28.1,29.79,SSE,157,0.0,0.0,83,0.00,,,0.00,WUHU21636XXSP,2013-10-19 11:02:00,
2013-10-19 06:07:00,32.8,28.2,29.79,SSE,157,0.0,0.0,83,0.00,,,0.00,WUHU21636XXSP,2013-10-19 11:07:00,
2013-10-19 06:12:00,32.8,28.4,29.79,SSE,157,0.0,0.0,84,0.00,,,0.00,WUHU21636XXSP,2013-10-19 11:12:00,
2013-10-19 06:17:00,33.0,28.4,29.79,SSE,157,0.0,0.0,83,0.00,,,0.00,WUHU21636XXSP,2013-10-19 11:17:00,
2013-10-19 06:22:00,33.0,28.4,29.79,SSE,157,0.0,0.0,83,0.00,,,0.00,WUHU21636XXSP,2013-10-19 11:22:00,
2013-10-19 06:27:00,33.0,28.6,29.79,SSE,157,0.0,0.0,84,0.00,,,0.00,WUHU21636XXSP,2013-10-19 11:27:00,
2013-10-19 06:32:00,33.0,28.6,29.79,SSE,157,0.0,0.0,84,0.00,,,0.00,WUHU21636XXSP,2013-10-19 11:32:00,
2013-10-19 06:37:00,33.0,28.6,29.79,SSE,157,0.0,0.0,84,0.00,,,0.00,WUHU21636XXSP,2013-10-19 11:37:00,
2013-10-19 06:42:00,33.0,28.6,29.79,SSE,157,0.0,0.0,84,0.00,,,0.00,WUHU21636XXSP,2013-10-19 11:42:00,
2013-10-19 06:47:00,33.0,28.6,29.79,SSE,157,0.0,0.0,84,0.00,,,0.00,WUHU21636XXSP,2013-10-19 11:47:00,
2013-10-19 06:52:00,33.2,28.9,29.79,SSE,157,0.0,0.0,84,0.00,,,0.00,WUHU21636XXSP,2013-10-19 11:52:00,
2013-10-19 06:57:00,33.2,28.9,29.79,SSE,157,0.0,0.0,84,0.00,,,0.00,WUHU21636XXSP,2013-10-19 11:57:00,
2013-10-19 07:02:00,33.2,28.9,29.79,SSE,157,0.0,0.0,84,0.00,,,0.00,WUHU21636XXSP,2013-10-19 12:02:00,
2013-10-19 07:07:00,33.2,28.9,29.79,SSE,157,0.0,0.0,84,0.00,,,0.00,WUHU21636XXSP,2013-10-19 12:07:00,
2013-10-19 07:12:00,33.4,29.1,29.79,SSE,157,0.0,0.0,84,0.00,,,0.00,WUHU21636XXSP,2013-10-19 12:12:00,
2013-10-19 07:17:00,33.4,29.1,29.79,SSE,157,0.0,0.0,84,0.00,,,0.00,WUHU21636XXSP,2013-10-19 12:17:00,
2013-10-19 07:22:00,33.4,29.1,29.79,SSE,157,0.0,0.0,84,0.00,,,0.00,WUHU21636XXSP,2013-10-19 12:22:00,
2013-10-19 07:27:00,33.4,29.1,29.79,SSE,157,0.0,0.0,84,0.00,,,0.00,WUHU21636XXSP,2013-10-19 12:27:00,
2013-10-19 07:32:00,33.4,29.1,29.79,SSE,157,0.0,0.0,84,0.00,,,0.00,WUHU21636XXSP,2013-10-19 12:32:00,
2013-10-19 07:37:00,33.2,28.6,29.79,SSE,157,0.0,0.0,83,0.00,,,0.00,WUHU21636XXSP,2013-10-19 12:37:00,
2013-10-19 07:42:00,33.2,28.6,29.79,SSE,157,0.0,0.0,83,0.00,,,0.00,WUHU21636XXSP,2013-10-19 12:42:00,
2013-10-19 07:47:00,33.4,28.8,29.79,SSE,157,0.0,0.0,83,0.00,,,0.00,WUHU21636XXSP,2013-10-19 12:47:00,
2013-10-19 07:52:00,33.0,28.4,29.79,SSE,157,0.0,0.0,83,0.00,,,0.00,WUHU21636XXSP,2013-10-19 12:52:00,
2013-10-19 07:57:00,33.2,28.6,29.79,SSE,157,0.0,0.0,83,0.00,,,0.00,WUHU21636XXSP,2013-10-19 12:57:00,
2013-10-19 08:02:00,33.2,28.6,29.79,SSE,157,0.0,0.0,83,0.00,,,0.00,WUHU21636XXSP,2013-10-19 13:02:00,
2013-10-19 08:07:00,33.6,29.0,29.79,SSE,157,0.0,0.0,83,0.00,,,0.00,WUHU21636XXSP,2013-10-19 13:07:00,
2013-10-19 08:12:00,33.7,29.1,29.79,SSE,157,0.0,0.0,83,0.00,,,0.00,WUHU21636XXSP,2013-10-19 13:12:00,
2013-10-19 08:17:00,33.7,29.1,29.79,SSE,157,0.0,0.0,83,0.00,,,0.00,WUHU21636XXSP,2013-10-19 13:17:00,
2013-10-19 08:22:00,34.1,29.5,29.78,SSE,157,0.0,0.0,83,0.00,,,0.00,WUHU21636XXSP,2013-10-19 13:22:00,
2013-10-19 08:27:00,34.5,30.2,29.79,SSE,157,0.0,0.0,84,0.00,,,0.00,WUHU21636XXSP,2013-10-19 13:27:00,
2013-10-19 08:32:00,34.7,30.3,29.79,SSE,157,0.0,0.0,84,0.00,,,0.00,WUHU21636XXSP,2013-10-19 13:32:00,
2013-10-19 08:37:00,34.7,30.3,29.78,SSE,157,0.0,0.0,84,0.00,,,0.00,WUHU21636XXSP,2013-10-19 13:37:00,
2013-10-19 08:42:00,34.9,30.5,29.78,SSE,157,0.0,0.0,84,0.00,,,0.00,WUHU21636XXSP,2013-10-19 13:42:00,
2013-10-19 08:47:00,35.1,30.7,29.79,SSE,157,0.0,0.0,84,0.00,,,0.00,WUHU21636XXSP,2013-10-19 13:47:00,
2013-10-19 08:52:00,35.5,30.8,29.79,SSE,157,0.0,0.0,83,0.00,,,0.00,WUHU21636XXSP,2013-10-19 13:52:00,
2013-10-19 08:57:00,35.6,30.9,29.79,SSE,157,0.0,0.0,83,0.00,,,0.00,WUHU21636XXSP,2013-10-19 13:57:00,
2013-10-19 09:02:00,35.6,30.9,29.78,SSE,157,0.0,0.0,83,0.00,,,0.00,WUHU21636XXSP,2013-10-19 14:02:00,
2013-10-19 09:07:00,36.2,31.5,29.79,SSE,157,0.0,0.0,83,0.00,,,0.00,WUHU21636XXSP,2013-10-19 14:07:00,
2013-10-19 09:12:00,36.4,31.8,29.78,SSE,157,0.0,0.0,83,0.00,,,0.00,WUHU21636XXSP,2013-10-19 14:12:00,
2013-10-19 09:17:00,36.8,32.1,29.78,SSE,157,0.0,0.0,83,0.00,,,0.00,WUHU21636XXSP,2013-10-19 14:17:00,
2013-10-19 09:22:00,37.5,32.8,29.78,SSE,157,0.0,0.0,83,0.00,,,0.00,WUHU21636XXSP,2013-10-19 14:22:00,
2013-10-19 09:27:00,37.7,33.0,29.78,SSE,157,0.0,0.0,83,0.00,,,0.00,WUHU21636XXSP,2013-10-19 14:27:00,
2013-10-19 09:32:00,38.4,33.4,29.78,West,270,0.0,0.0,82,0.00,,,0.00,WUHU21636XXSP,2013-10-19 14:32:00,
2013-10-19 09:37:00,38.8,33.5,29.78,WSW,247,0.0,0.0,81,0.00,,,0.00,WUHU21636XXSP,2013-10-19 14:37:00,
2013-10-19 09:42:00,39.4,33.7,29.77,West,270,0.0,0.0,80,0.00,,,0.00,WUHU21636XXSP,2013-10-19 14:42:00,
2013-10-19 09:47:00,40.0,34.0,29.77,West,270,0.0,0.0,79,0.00,,,0.00,WUHU21636XXSP,2013-10-19 14:47:00,
2013-10-19 09:52:00,40.5,34.2,29.77,West,270,0.0,0.0,78,0.00,,,0.00,WUHU21636XXSP,2013-10-19 14:52:00,
2013-10-19 09:57:00,41.0,34.7,29.77,WSW,247,0.0,0.0,78,0.00,,,0.00,WUHU21636XXSP,2013-10-19 14:57:00,
2013-10-19 10:02:00,41.3,34.6,29.77,West,270,0.0,0.0,77,0.00,,,0.00,WUHU21636XXSP,2013-10-19 15:02:00,
2013-10-19 10:07:00,41.9,34.6,29.77,WSW,247,0.0,0.0,75,0.00,,,0.00,WUHU21636XXSP,2013-10-19 15:07:00,
2013-10-19 10:12:00,42.4,34.8,29.77,West,270,0.0,0.0,74,0.00,,,0.00,WUHU21636XXSP,2013-10-19 15:12:00,
2013-10-19 10:17:00,42.8,35.2,29.77,West,270,0.0,0.0,74,0.00,,,0.00,WUHU21636XXSP,2013-10-19 15:17:00,
2013-10-19 10:22:00,43.2,34.8,29.77,West,270,0.0,0.0,72,0.00,,,0.00,WUHU21636XXSP,2013-10-19 15:22:00,
2013-10-19 10:27:00,43.8,35.4,29.76,West,270,0.0,0.0,72,0.00,,,0.00,WUHU21636XXSP,2013-10-19 15:27:00,
2013-10-19 10:32:00,44.1,35.7,29.76,West,270,0.0,0.0,72,0.00,,,0.00,WUHU21636XXSP,2013-10-19 15:32:00,
2013-10-19 10:37:00,44.3,35.6,29.76,West,270,0.0,0.0,71,0.00,,,0.00,WUHU21636XXSP,2013-10-19 15:37:00,
2013-10-19 10:42:00,44.7,35.3,29.76,West,270,0.0,0.0,69,0.00,,,0.00,WUHU21636XXSP,2013-10-19 15:42:00,
2013-10-19 10:47:00,44.9,35.8,29.76,West,270,0.0,0.0,70,0.00,,,0.00,WUHU21636XXSP,2013-10-19 15:47:00,
2013-10-19 10:52:00,45.3,36.1,29.76,SE,135,0.0,0.0,70,0.00,,,0.00,WUHU21636XXSP,2013-10-19 15:52:00,
2013-10-19 10:57:00,46.0,36.1,29.76,ESE,112,0.0,0.0,68,0.00,,,0.00,WUHU21636XXSP,2013-10-19 15:57:00,
2013-10-19 11:02:00,46.6,37.1,29.76,ESE,112,0.0,0.0,69,0.00,,,0.00,WUHU21636XXSP,2013-10-19 16:02:00,
2013-10-19 11:07:00,47.4,36.7,29.76,South,180,0.0,0.0,66,0.00,,,0.00,WUHU21636XXSP,2013-10-19 16:07:00,
2013-10-19 11:12:00,47.9,37.2,29.75,SSW,202,0.0,0.0,66,0.00,,,0.00,WUHU21636XXSP,2013-10-19 16:12:00,
2013-10-19 11:17:00,48.1,36.2,29.75,WNW,292,0.0,0.0,63,0.00,,,0.00,WUHU21636XXSP,2013-10-19 16:17:00,
2013-10-19 11:22:00,47.9,36.4,29.75,East,90,0.0,0.0,64,0.00,,,0.00,WUHU21636XXSP,2013-10-19 16:22:00,
2013-10-19 11:27:00,48.5,36.6,29.74,SW,225,0.0,0.0,63,0.00,,,0.00,WUHU21636XXSP,2013-10-19 16:27:00,
2013-10-19 11:32:00,48.8,36.9,29.74,SSE,157,1.6,1.6,63,0.00,,,0.00,WUHU21636XXSP,2013-10-19 16:32:00,
2013-10-19 11:37:00,49.7,36.9,29.74,WSW,247,0.0,1.6,61,0.00,,,0.00,WUHU21636XXSP,2013-10-19 16:37:00,
2013-10-19 11:42:00,50.2,36.9,29.74,South,180,0.0,1.6,60,0.00,,,0.00,WUHU21636XXSP,2013-10-19 16:42:00,
2013-10-19 11:47:00,50.4,37.1,29.74,South,180,0.0,0.0,60,0.00,,,0.00,WUHU21636XXSP,2013-10-19 16:47:00,
2013-10-19 11:52:00,50.7,37.4,29.74,SSE,157,0.0,0.0,60,0.00,,,0.00,WUHU21636XXSP,2013-10-19 16:52:00,
2013-10-19 11:57:00,50.7,37.0,29.74,WSW,247,0.0,0.0,59,0.00,,,0.00,WUHU21636XXSP,2013-10-19 16:57:00,
2013-10-19 12:02:00,50.2,36.9,29.74,SSE,157,0.0,0.0,60,0.00,,,0.00,WUHU21636XXSP,2013-10-19 17:02:00,
2013-10-19 12:07:00,49.8,35.7,29.74,WSW,247,0.0,0.0,58,0.00,,,0.00,WUHU21636XXSP,2013-10-19 17:07:00,
2013-10-19 12:12:00,49.2,35.6,29.74,SSW,202,0.0,0.0,59,0.00,,,0.00,WUHU21636XXSP,2013-10-19 17:12:00,
2013-10-19 12:17:00,49.2,36.5,29.74,SE,135,0.0,0.0,61,0.00,,,0.00,WUHU21636XXSP,2013-10-19 17:17:00,
2013-10-19 12:22:00,49.2,36.0,29.73,SE,135,0.0,0.0,60,0.00,,,0.00,WUHU21636XXSP,2013-10-19 17:22:00,
2013-10-19 12:27:00,49.0,36.3,29.73,NW,315,0.0,0.0,61,0.00,,,0.00,WUHU21636XXSP,2013-10-19 17:27:00,
2013-10-19 12:32:00,48.8,35.2,29.73,West,270,0.0,0.0,59,0.00,,,0.00,WUHU21636XXSP,2013-10-19 17:32:00,
2013-10-19 12:37:00,48.5,34.9,29.73,SW,225,0.0,0.0,59,0.00,,,0.00,WUHU21636XXSP,2013-10-19 17:37:00,
2013-10-19 12:42:00,47.8,36.3,29.73,WSW,247,0.0,0.0,64,0.00,,,0.00,WUHU21636XXSP,2013-10-19 17:42:00,
2013-10-19 12:47:00,46.9,35.9,29.74,West,270,0.0,0.0,65,0.00,,,0.00,WUHU21636XXSP,2013-10-19 17:47:00,
2013-10-19 12:52:00,46.0,35.7,29.74,West,270,0.0,0.0,67,0.00,,,0.00,WUHU21636XXSP,2013-10-19 17:52:00,
2013-10-19 12:57:00,45.7,36.2,29.74,ENE,67,0.0,0.0,69,0.02,,,0.00,WUHU21636XXSP,2013-10-19 17:57:00,
2013-10-19 13:02:00,45.3,36.5,29.73,West,270,0.0,0.0,71,0.02,,,0.03,WUHU21636XXSP,2013-10-19 18:02:00,
2013-10-19 13:07:00,45.3,36.8,29.74,WNW,292,0.0,0.0,72,0.02,,,0.03,WUHU21636XXSP,2013-10-19 18:07:00,
2013-10-19 13:12:00,45.0,37.0,29.73,West,270,0.0,0.0,73,0.02,,,0.03,WUHU21636XXSP,2013-10-19 18:12:00,
2013-10-19 13:17:00,45.3,37.5,29.73,West,270,0.0,0.0,74,0.02,,,0.03,WUHU21636XXSP,2013-10-19 18:17:00,
2013-10-19 13:22:00,45.7,37.9,29.73,West,270,0.0,0.0,74,0.02,,,0.03,WUHU21636XXSP,2013-10-19 18:22:00,
2013-10-19 13:27:00,45.9,37.8,29.72,West,270,0.0,0.0,73,0.02,,,0.03,WUHU21636XXSP,2013-10-19 18:27:00,
2013-10-19 13:32:00,46.0,37.9,29.72,SSE,157,0.0,0.0,73,0.02,,,0.03,WUHU21636XXSP,2013-10-19 18:32:00,
2013-10-19 13:37:00,46.0,38.2,29.72,East,90,0.0,0.0,74,0.02,,,0.03,WUHU21636XXSP,2013-10-19 18:37:00,
2013-10-19 13:42:00,46.6,39.2,29.72,ENE,67,0.0,0.0,75,0.02,,,0.03,WUHU21636XXSP,2013-10-19 18:42:00,
2013-10-19 13:47:00,47.1,38.7,29.72,WSW,247,0.0,0.0,72,0.02,,,0.03,WUHU21636XXSP,2013-10-19 18:47:00,
2013-10-19 13:52:00,47.1,38.7,29.72,SSW,202,0.0,0.0,72,0.02,,,0.03,WUHU21636XXSP,2013-10-19 18:52:00,
2013-10-19 13:57:00,47.1,38.0,29.72,ESE,112,0.0,0.0,70,0.02,,,0.03,WUHU21636XXSP,2013-10-19 18:57:00,
2013-10-19 14:02:00,47.1,37.6,29.71,NW,315,0.0,0.0,69,0.00,,,0.03,WUHU21636XXSP,2013-10-19 19:02:00,
2013-10-19 14:07:00,46.9,37.4,29.71,South,180,0.0,0.0,69,0.00,,,0.03,WUHU21636XXSP,2013-10-19 19:07:00,
2013-10-19 14:12:00,46.9,37.4,29.71,NE,45,0.0,0.0,69,0.00,,,0.03,WUHU21636XXSP,2013-10-19 19:12:00,
2013-10-19 14:17:00,46.6,37.5,29.71,WNW,292,0.0,0.0,70,0.00,,,0.03,WUHU21636XXSP,2013-10-19 19:17:00,
2013-10-19 14:22:00,46.4,37.2,29.71,ENE,67,0.0,0.0,70,0.00,,,0.03,WUHU21636XXSP,2013-10-19 19:22:00,
2013-10-19 14:27:00,46.4,37.6,29.71,SE,135,0.0,0.0,71,0.00,,,0.03,WUHU21636XXSP,2013-10-19 19:27:00,
2013-10-19 14:32:00,46.4,37.6,29.71,ESE,112,0.0,0.0,71,0.00,,,0.03,WUHU21636XXSP,2013-10-19 19:32:00,
2013-10-19 14:37:00,46.2,37.4,29.71,ESE,112,0.0,0.0,71,0.00,,,0.03,WUHU21636XXSP,2013-10-19 19:37:00,
2013-10-19 14:42:00,46.2,37.4,29.71,ESE,112,0.0,0.0,71,0.00,,,0.03,WUHU21636XXSP,2013-10-19 19:42:00,
2013-10-19 14:47:00,46.2,37.4,29.71,South,180,0.0,0.0,71,0.00,,,0.03,WUHU21636XXSP,2013-10-19 19:47:00,
2013-10-19 14:52:00,46.2,37.4,29.71,SSE,157,0.0,0.0,71,0.00,,,0.03,WUHU21636XXSP,2013-10-19 19:52:00,
2013-10-19 14:57:00,46.4,37.6,29.71,South,180,0.0,0.0,71,0.00,,,0.03,WUHU21636XXSP,2013-10-19 19:57:00,
2013-10-19 15:02:00,46.2,36.7,29.71,WNW,292,0.0,0.0,69,0.00,,,0.03,WUHU21636XXSP,2013-10-19 20:02:00,
2013-10-19 15:07:00,46.0,36.5,29.71,WSW,247,0.0,0.0,69,0.00,,,0.03,WUHU21636XXSP,2013-10-19 20:07:00,
2013-10-19 15:12:00,46.0,36.8,29.71,East,90,0.0,0.0,70,0.00,,,0.03,WUHU21636XXSP,2013-10-19 20:12:00,
2013-10-19 15:17:00,46.0,36.8,29.71,West,270,0.0,0.0,70,0.00,,,0.03,WUHU21636XXSP,2013-10-19 20:17:00,
2013-10-19 15:22:00,46.2,37.0,29.71,SSW,202,0.0,0.0,70,0.00,,,0.03,WUHU21636XXSP,2013-10-19 20:22:00,
2013-10-19 15:27:00,46.4,36.9,29.71,South,180,0.0,0.0,69,0.00,,,0.03,WUHU21636XXSP,2013-10-19 20:27:00,
2013-10-19 15:32:00,46.4,36.1,29.71,WSW,247,0.0,0.0,67,0.00,,,0.03,WUHU21636XXSP,2013-10-19 20:32:00,
2013-10-19 15:37:00,46.4,36.1,29.71,WSW,247,0.0,0.0,67,0.00,,,0.03,WUHU21636XXSP,2013-10-19 20:37:00,
2013-10-19 15:42:00,46.6,36.3,29.71,NW,315,0.0,0.0,67,0.00,,,0.03,WUHU21636XXSP,2013-10-19 20:42:00,
2013-10-19 15:47:00,46.6,36.7,29.72,SE,135,0.0,0.0,68,0.00,,,0.03,WUHU21636XXSP,2013-10-19 20:47:00,
2013-10-19 15:52:00,46.6,36.7,29.72,SW,225,0.0,0.0,68,0.00,,,0.03,WUHU21636XXSP,2013-10-19 20:52:00,
2013-10-19 15:57:00,46.9,36.3,29.72,WSW,247,0.0,0.0,66,0.00,,,0.03,WUHU21636XXSP,2013-10-19 20:57:00,
2013-10-19 16:02:00,46.8,36.5,29.71,WSW,247,0.0,0.0,67,0.00,,,0.03,WUHU21636XXSP,2013-10-19 21:02:00,
2013-10-19 16:07:00,46.9,36.6,29.72,West,270,0.0,0.0,67,0.00,,,0.03,WUHU21636XXSP,2013-10-19 21:07:00,
2013-10-19 16:12:00,46.9,36.6,29.72,SW,225,0.0,0.0,67,0.00,,,0.03,WUHU21636XXSP,2013-10-19 21:12:00,
2013-10-19 16:17:00,47.1,36.8,29.71,ESE,112,0.0,0.0,67,0.00,,,0.03,WUHU21636XXSP,2013-10-19 21:17:00,
2013-10-19 16:22:00,47.6,37.3,29.71,ESE,112,0.0,0.0,67,0.00,,,0.03,WUHU21636XXSP,2013-10-19 21:22:00,
2013-10-19 16:27:00,47.6,36.9,29.71,ESE,112,0.0,0.0,66,0.00,,,0.03,WUHU21636XXSP,2013-10-19 21:27:00,
2013-10-19 16:32:00,47.6,37.3,29.71,ESE,112,0.0,0.0,67,0.00,,,0.03,WUHU21636XXSP,2013-10-19 21:32:00,
2013-10-19 16:37:00,47.4,36.3,29.72,South,180,0.0,0.0,65,0.00,,,0.03,WUHU21636XXSP,2013-10-19 21:37:00,
2013-10-19 16:42:00,47.1,36.5,29.73,NW,315,0.0,0.0,66,0.00,,,0.03,WUHU21636XXSP,2013-10-19 21:42:00,
2013-10-19 16:47:00,46.9,37.0,29.73,NW,315,0.0,0.0,68,0.00,,,0.03,WUHU21636XXSP,2013-10-19 21:47:00,
2013-10-19 16:52:00,46.2,37.8,29.73,SSW,202,0.0,0.0,72,0.00,,,0.03,WUHU21636XXSP,2013-10-19 21:52:00,
2013-10-19 16:57:00,45.9,37.1,29.73,North,0,0.0,0.0,71,0.00,,,0.03,WUHU21636XXSP,2013-10-19 21:57:00,
2013-10-19 17:02:00,45.7,37.2,29.73,North,0,0.0,0.0,72,0.00,,,0.03,WUHU21636XXSP,2013-10-19 22:02:00,
2013-10-19 17:07:00,45.3,37.2,29.73,North,0,0.0,0.0,73,0.00,,,0.03,WUHU21636XXSP,2013-10-19 22:07:00,
2013-10-19 17:12:00,45.3,37.5,29.73,North,0,0.0,0.0,74,0.00,,,0.03,WUHU21636XXSP,2013-10-19 22:12:00,
2013-10-19 17:17:00,45.0,37.3,29.73,North,0,0.0,0.0,74,0.00,,,0.03,WUHU21636XXSP,2013-10-19 22:17:00,
2013-10-19 17:22:00,45.0,37.7,29.73,North,0,0.0,0.0,75,0.00,,,0.03,WUHU21636XXSP,2013-10-19 22:22:00,
2013-10-19 17:27:00,44.7,37.4,29.73,NNW,337,0.0,0.0,75,0.00,,,0.03,WUHU21636XXSP,2013-10-19 22:27:00,
2013-10-19 17:32:00,44.5,37.2,29.74,NNW,337,0.0,0.0,75,0.00,,,0.03,WUHU21636XXSP,2013-10-19 22:32:00,
2013-10-19 17:37:00,44.3,36.6,29.74,WNW,292,0.0,0.0,74,0.00,,,0.03,WUHU21636XXSP,2013-10-19 22:37:00,
2013-10-19 17:42:00,44.0,36.3,29.73,WNW,292,0.0,0.0,74,0.00,,,0.03,WUHU21636XXSP,2013-10-19 22:42:00,
2013-10-19 17:47:00,43.8,36.1,29.74,WSW,247,0.0,0.0,74,0.00,,,0.03,WUHU21636XXSP,2013-10-19 22:47:00,
2013-10-19 17:52:00,43.4,35.7,29.73,WSW,247,0.0,0.0,74,0.00,,,0.03,WUHU21636XXSP,2013-10-19 22:52:00,
2013-10-19 17:57:00,43.4,35.7,29.74,WNW,292,0.0,0.0,74,0.00,,,0.03,WUHU21636XXSP,2013-10-19 22:57:00,
2013-10-19 18:02:00,43.2,35.5,29.74,WNW,292,0.0,0.0,74,0.00,,,0.03,WUHU21636XXSP,2013-10-19 23:02:00,
2013-10-19 18:07:00,43.2,35.8,29.74,West,270,0.0,0.0,75,0.00,,,0.03,WUHU21636XXSP,2013-10-19 23:07:00,
2013-10-19 18:12:00,43.2,36.2,29.74,West,270,0.0,0.0,76,0.00,,,0.03,WUHU21636XXSP,2013-10-19 23:12:00,
2013-10-19 18:17:00,43.2,36.2,29.75,West,270,0.0,0.0,76,0.00,,,0.03,WUHU21636XXSP,2013-10-19 23:17:00,
2013-10-19 18:22:00,43.0,36.1,29.75,WSW,247,0.0,0.0,76,0.00,,,0.03,WUHU21636XXSP,2013-10-19 23:22:00,
2013-10-19 18:27:00,42.8,36.2,29.75,WSW,247,0.0,0.0,77,0.00,,,0.03,WUHU21636XXSP,2013-10-19 23:27:00,
2013-10-19 18:32:00,42.6,36.0,29.75,WSW,247,0.0,0.0,77,0.00,,,0.03,WUHU21636XXSP,2013-10-19 23:32:00,
2013-10-19 18:37:00,42.2,35.6,29.75,WSW,247,0.0,0.0,77,0.00,,,0.03,WUHU21636XXSP,2013-10-19 23:37:00,
2013-10-19 18:42:00,42.2,35.6,29.76,WSW,247,0.0,0.0,77,0.00,,,0.03,WUHU21636XXSP,2013-10-19 23:42:00,
2013-10-19 18:47:00,41.9,35.3,29.76,WSW,247,0.0,0.0,77,0.00,,,0.03,WUHU21636XXSP,2013-10-19 23:47:00,
2013-10-19 18:52:00,41.7,35.0,29.76,WSW,247,0.0,0.0,77,0.00,,,0.03,WUHU21636XXSP,2013-10-19 23:52:00,
2013-10-19 18:57:00,41.5,35.2,29.76,WSW,247,0.0,0.0,78,0.00,,,0.03,WUHU21636XXSP,2013-10-19 23:57:00,
2013-10-19 19:02:00,41.3,35.0,29.76,WSW,247,0.0,0.0,78,0.00,,,0.03,WUHU21636XXSP,2013-10-20 00:02:00,
2013-10-19 19:07:00,41.3,35.0,29.76,WSW,247,0.0,0.0,78,0.00,,,0.03,WUHU21636XXSP,2013-10-20 00:07:00,
2013-10-19 19:12:00,41.3,35.3,29.77,WSW,247,0.0,0.0,79,0.00,,,0.03,WUHU21636XXSP,2013-10-20 00:12:00,
2013-10-19 19:17:00,41.3,35.6,29.77,WSW,247,0.0,0.0,80,0.00,,,0.03,WUHU21636XXSP,2013-10-20 00:17:00,
2013-10-19 19:22:00,41.2,35.5,29.77,East,90,0.0,0.0,80,0.00,,,0.03,WUHU21636XXSP,2013-10-20 00:22:00,
2013-10-19 19:27:00,41.2,35.5,29.76,East,90,0.0,0.0,80,0.00,,,0.03,WUHU21636XXSP,2013-10-20 00:27:00,
2013-10-19 19:32:00,41.2,35.5,29.76,ESE,112,0.0,0.0,80,0.00,,,0.03,WUHU21636XXSP,2013-10-20 00:32:00,
2013-10-19 19:37:00,41.2,35.5,29.77,ESE,112,0.0,0.0,80,0.00,,,0.03,WUHU21636XXSP,2013-10-20 00:37:00,
2013-10-19 19:42:00,41.2,35.2,29.77,ESE,112,0.0,0.0,79,0.00,,,0.03,WUHU21636XXSP,2013-10-20 00:42:00,
2013-10-19 19:47:00,41.2,34.9,29.77,ESE,112,0.0,0.0,78,0.00,,,0.03,WUHU21636XXSP,2013-10-20 00:47:00,
2013-10-19 19:52:00,41.2,34.9,29.77,ESE,112,0.0,0.0,78,0.00,,,0.03,WUHU21636XXSP,2013-10-20 00:52:00,
2013-10-19 19:57:00,41.0,34.7,29.77,ESE,112,0.0,0.0,78,0.00,,,0.03,WUHU21636XXSP,2013-10-20 00:57:00,
2013-10-19 20:02:00,40.7,34.4,29.77,ESE,112,0.0,0.0,78,0.00,,,0.03,WUHU21636XXSP,2013-10-20 01:02:00,
2013-10-19 20:07:00,40.5,34.2,29.77,ESE,112,0.0,0.0,78,0.00,,,0.03,WUHU21636XXSP,2013-10-20 01:07:00,
2013-10-19 20:12:00,40.3,34.0,29.78,ESE,112,0.0,0.0,78,0.00,,,0.03,WUHU21636XXSP,2013-10-20 01:12:00,
2013-10-19 20:17:00,40.0,33.7,29.78,ESE,112,0.0,0.0,78,0.00,,,0.03,WUHU21636XXSP,2013-10-20 01:17:00,
2013-10-19 20:22:00,39.6,33.0,29.78,ESE,112,0.0,0.0,77,0.00,,,0.03,WUHU21636XXSP,2013-10-20 01:22:00,
2013-10-19 20:27:00,39.4,33.1,29.77,ESE,112,0.0,0.0,78,0.00,,,0.03,WUHU21636XXSP,2013-10-20 01:27:00,
2013-10-19 20:32:00,39.1,32.8,29.77,ESE,112,0.0,0.0,78,0.00,,,0.03,WUHU21636XXSP,2013-10-20 01:32:00,
2013-10-19 20:37:00,38.8,32.6,29.77,ESE,112,0.0,0.0,78,0.00,,,0.03,WUHU21636XXSP,2013-10-20 01:37:00,
2013-10-19 20:42:00,38.6,32.7,29.78,ESE,112,0.0,0.0,79,0.00,,,0.03,WUHU21636XXSP,2013-10-20 01:42:00,
2013-10-19 20:47:00,38.4,32.2,29.78,ESE,112,0.0,0.0,78,0.00,,,0.03,WUHU21636XXSP,2013-10-20 01:47:00,
2013-10-19 20:52:00,38.4,32.5,29.78,ESE,112,0.0,0.0,79,0.00,,,0.03,WUHU21636XXSP,2013-10-20 01:52:00,
2013-10-19 20:57:00,38.3,32.4,29.78,ESE,112,0.0,0.0,79,0.00,,,0.03,WUHU21636XXSP,2013-10-20 01:57:00,
2013-10-19 21:02:00,38.1,32.2,29.78,ESE,112,0.0,0.0,79,0.00,,,0.03,WUHU21636XXSP,2013-10-20 02:02:00,
2013-10-19 21:07:00,38.1,32.5,29.78,ESE,112,0.0,0.0,80,0.00,,,0.03,WUHU21636XXSP,2013-10-20 02:07:00,
2013-10-19 21:12:00,37.9,32.3,29.78,ESE,112,0.0,0.0,80,0.00,,,0.03,WUHU21636XXSP,2013-10-20 02:12:00,
2013-10-19 21:17:00,37.7,32.1,29.79,ESE,112,0.0,0.0,80,0.00,,,0.03,WUHU21636XXSP,2013-10-20 02:17:00,
2013-10-19 21:22:00,37.7,32.1,29.78,ESE,112,0.0,0.0,80,0.00,,,0.03,WUHU21636XXSP,2013-10-20 02:22:00,
2013-10-19 21:27:00,37.7,32.1,29.78,ESE,112,0.0,0.0,80,0.00,,,0.03,WUHU21636XXSP,2013-10-20 02:27:00,
2013-10-19 21:32:00,37.5,31.9,29.79,ESE,112,0.0,0.0,80,0.00,,,0.03,WUHU21636XXSP,2013-10-20 02:32:00,
2013-10-19 21:37:00,37.5,32.2,29.79,ESE,112,0.0,0.0,81,0.00,,,0.03,WUHU21636XXSP,2013-10-20 02:37:00,
2013-10-19 21:42:00,37.5,32.2,29.79,ESE,112,0.0,0.0,81,0.00,,,0.03,WUHU21636XXSP,2013-10-20 02:42:00,
2013-10-19 21:47:00,37.2,31.9,29.79,ESE,112,0.0,0.0,81,0.00,,,0.03,WUHU21636XXSP,2013-10-20 02:47:00,
2013-10-19 21:52:00,37.2,31.9,29.79,ESE,112,0.0,0.0,81,0.00,,,0.03,WUHU21636XXSP,2013-10-20 02:52:00,
2013-10-19 21:57:00,37.2,31.9,29.79,ESE,112,0.0,0.0,81,0.00,,,0.03,WUHU21636XXSP,2013-10-20 02:57:00,
2013-10-19 22:02:00,37.4,32.1,29.79,ESE,112,0.0,0.0,81,0.00,,,0.03,WUHU21636XXSP,2013-10-20 03:02:00,
2013-10-19 22:07:00,37.5,32.2,29.79,ESE,112,0.0,0.0,81,0.00,,,0.03,WUHU21636XXSP,2013-10-20 03:07:00,
2013-10-19 22:12:00,37.5,32.5,29.79,ESE,112,0.0,0.0,82,0.00,,,0.03,WUHU21636XXSP,2013-10-20 03:12:00,
2013-10-19 22:17:00,37.5,32.5,29.80,ESE,112,0.0,0.0,82,0.00,,,0.03,WUHU21636XXSP,2013-10-20 03:17:00,
2013-10-19 22:22:00,37.7,32.7,29.80,ESE,112,0.0,0.0,82,0.00,,,0.03,WUHU21636XXSP,2013-10-20 03:22:00,
2013-10-19 22:27:00,37.7,32.7,29.80,ESE,112,0.0,0.0,82,0.00,,,0.03,WUHU21636XXSP,2013-10-20 03:27:00,
2013-10-19 22:32:00,37.9,32.9,29.80,ESE,112,0.0,0.0,82,0.00,,,0.03,WUHU21636XXSP,2013-10-20 03:32:00,
2013-10-19 22:37:00,38.1,33.1,29.80,ESE,112,0.0,0.0,82,0.00,,,0.03,WUHU21636XXSP,2013-10-20 03:37:00,
2013-10-19 22:42:00,38.1,33.1,29.80,ESE,112,0.0,0.0,82,0.00,,,0.03,WUHU21636XXSP,2013-10-20 03:42:00,
2013-10-19 22:47:00,38.1,33.1,29.80,ESE,112,0.0,0.0,82,0.00,,,0.03,WUHU21636XXSP,2013-10-20 03:47:00,
2013-10-19 22:52:00,38.3,33.3,29.80,ESE,112,0.0,0.0,82,0.00,,,0.03,WUHU21636XXSP,2013-10-20 03:52:00,
2013-10-19 22:57:00,38.3,33.3,29.79,ESE,112,0.0,0.0,82,0.00,,,0.03,WUHU21636XXSP,2013-10-20 03:57:00,
2013-10-19 23:01:00,38.3,33.3,29.79,ESE,112,0.0,0.0,82,0.00,,,0.03,WUHU21636XXSP,2013-10-20 04:01:00,
2013-10-19 23:02:00,38.3,33.3,29.80,ESE,112,0.0,0.0,82,0.00,,,0.03,WUHU21636XXSP,2013-10-20 04:02:00,
2013-10-19 23:07:00,38.3,33.3,29.80,ESE,112,0.0,0.0,82,0.00,,,0.03,WUHU21636XXSP,2013-10-20 04:07:00,
2013-10-19 23:12:00,38.4,33.4,29.80,ESE,112,0.0,0.0,82,0.00,,,0.03,WUHU21636XXSP,2013-10-20 04:12:00,
2013-10-19 23:17:00,38.4,33.4,29.80,ESE,112,0.0,0.0,82,0.00,,,0.03,WUHU21636XXSP,2013-10-20 04:17:00,
2013-10-19 23:22:00,38.3,33.3,29.80,ESE,112,0.0,0.0,82,0.00,,,0.03,WUHU21636XXSP,2013-10-20 04:22:00,
2013-10-19 23:27:00,38.1,33.1,29.80,ESE,112,0.0,0.0,82,0.00,,,0.03,WUHU21636XXSP,2013-10-20 04:27:00,
2013-10-19 23:32:00,38.1,32.8,29.80,ESE,112,0.0,0.0,81,0.00,,,0.03,WUHU21636XXSP,2013-10-20 04:32:00,
2013-10-19 23:37:00,37.7,32.4,29.80,ESE,112,0.0,0.0,81,0.00,,,0.03,WUHU21636XXSP,2013-10-20 04:37:00,
2013-10-19 23:42:00,37.5,32.2,29.80,ESE,112,0.0,0.0,81,0.00,,,0.03,WUHU21636XXSP,2013-10-20 04:42:00,
2013-10-19 23:47:00,37.5,32.2,29.80,ESE,112,0.0,0.0,81,0.00,,,0.03,WUHU21636XXSP,2013-10-20 04:47:00,
2013-10-19 23:52:00,37.4,32.1,29.80,ESE,112,0.0,0.0,81,0.00,,,0.03,WUHU21636XXSP,2013-10-20 04:52:00,
2013-10-19 23:57:00,37.0,31.7,29.80,ESE,112,0.0,0.0,81,0.00,,,0.03,WUHU21636XXSP,2013-10-20 04:57:00,